TIME,DELAY(SENSOR),PRES,T(CTD),SAL,OXYGEN,RAWTEMP,T(OPTODE),TCPHASE,FLUOR,BETA(BETA700),BETA(BETA412),BETA(BETA440),CDOM,C(CSC),ED(ED411.90),ED(ED443.80),ED(ED489.40),ED(ED554.70),LU(LU412.20),LU(LU443.80),LU(LU489.40),LU(LU555.00),COMP,TILTX,TILTX(TILTY),CHECK
1348499966,5805,496.6799926757812500,17.5645008087158200,36.4777984619140600,232.8209991455078000,184.2487030029297000,17.5608901977539060,31.8075103759765620,50,109,91,84,66,14742,2147485805,2147765632,2147557330,2147795849,2147313097,2147474816,2147710317,2148242514,2708,7,13,32539
1348500083,5804,485.4899902343750000,17.6418991088867200,36.4908981323242200,232.9772949218750000,181.3775024414062500,17.6482696533203120,31.7608890533447270,50,105,91,82,64,14743,2147486528,2147763465,2147556726,2147795712,2147314752,2147474816,2147709641,2148246262,3115,7,13,35962
1348500210,5805,473.5599975585937500,17.7180995941162100,36.5055999755859400,233.9299926757812500,179.1419982910156200,17.7163105010986330,31.6843204498291000,49,106,91,84,65,14743,2147483949,2147763922,2147558665,2147792137,2147313508,2147477403,2147711104,2148242185,34,7,12,9689
1348500339,5805,461.5899963378906000,17.7751007080078120,36.5163002014160160,234.9851989746093800,177.3363037109375000,17.7712707519531250,31.6086997985839840,49,107,92,83,67,14741,2147479972,2147761654,2147559506,2147793270,2147310500,2147474916,2147707675,2148241545,3315,7,13,9004
1348500466,5803,449.7600097656250000,17.8313007354736330,36.5261993408203100,235.6313934326172000,175.4272003173828000,17.8293895721435550,31.5519199371337900,50,105,91,85,65,14742,2147487195,2147765952,2147558208,2147788754,2147313398,2147476580,2147706112,2148242505,233,7,12,54326
1348500581,5804,439.1000061035156000,17.8759994506835940,36.5332984924316400,236.1219024658203000,174.0178070068359400,17.8722991943359380,31.5092906951904300,50,106,90,84,65,14741,2147484525,2147764982,2147555373,2147790966,2147306624,2147473042,2147710171,2148243794,696,7,13,48623
1348500698,5802,428.3999938964844000,17.9265995025634770,36.5421981811523440,236.5877075195312500,172.3811035156250000,17.9221305847167970,31.4650306701660160,50,108,91,84,65,14744,2147483264,2147765997,2147556004,2147793901,2147311021,2147475794,2147705993,2148242075,674,7,12,2101
1348500825,5806,416.8500061035156000,17.9771995544433600,36.5516014099121100,237.1638946533203000,170.6298980712890600,17.9754505157470700,31.4139404296875000,50,107,91,84,66,14744,2147486628,2147768146,2147553115,2147793828,2147314907,2147472173,2147709001,2148244763,766,7,12,52233
1348500942,5804,406.3599853515625000,18.0258998870849600,36.5579986572265600,237.0184936523437500,169.0157928466797000,18.0245990753173830,31.3993206024169920,49,109,90,82,64,14743,2147486098,2147762404,2147556562,2147791369,2147312685,2147475684,2147708489,2148245056,481,7,13,35295
1348501069,5805,394.9200134277344000,18.0786991119384770,36.5643005371093750,236.6026000976562500,167.3807067871093800,18.0743904113769530,31.3970603942871100,50,106,93,83,64,14742,2147487753,2147759899,2147552411,2147794578,2147314404,2147474706,2147709577,2148243894,401,7,12,64242
1348501184,5806,384.6600036621094000,18.1156997680664060,36.5694007873535160,236.2084960937500000,166.0000000000000000,18.1164493560791000,31.3973503112792970,50,107,91,83,64,14744,2147485659,2147764736,2147554011,2147790619,2147311670,2147475958,2147703085,2148240841,134,7,12,54254
1348501313,5802,373.2200012207031000,18.1721992492675780,36.5764007568359400,235.7631072998047000,164.2716979980468800,18.1690902709960940,31.3952198028564450,50,107,90,84,66,14743,2147486820,2147759296,2147554349,2147789284,2147314953,2147473974,2147708342,2148239213,2877,7,13,57790
1348501440,5801,362.0000000000000000,18.2089996337890620,36.5806999206543000,235.5634002685547000,163.0381927490234400,18.2066593170166000,31.3883209228515620,50,107,91,84,65,14742,2147489444,2147760694,2147558281,2147788946,2147306203,2147475483,2147705691,2148241417,2877,7,13,26622
1348501557,5804,351.7900085449219000,18.2565994262695300,36.5848999023437500,235.0695953369140600,161.4515991210937500,18.2549991607666000,31.3907604217529300,50,109,91,84,65,14741,2147486006,2147766464,2147553389,2147789952,2147309092,2147475026,2147707236,2148241234,2211,7,12,11085
1348501684,5804,340.7300109863281000,18.3027000427246100,36.5895004272460940,234.2398986816406200,159.9494934082031200,18.3007602691650400,31.4103908538818360,50,111,93,84,66,14740,2147492050,2147761051,2147556288,2147793929,2147308150,2147474523,2147704073,2148240502,2450,7,12,942
1348501823,5801,328.8900146484375000,18.3551998138427730,36.5923004150390600,232.8574981689453000,158.2722015380859400,18.3518695831298830,31.4547691345214840,50,107,91,83,65,14742,2147485558,2147762413,2147554898,2147790372,2147304548,2147474029,2147706742,2148239716,3270,7,13,11015
1348501952,5803,318.1600036621094000,18.4356002807617200,36.5996017456054700,231.7433929443359400,155.6309967041015600,18.4323501586914060,31.4734401702880860,50,110,91,84,66,14741,2147487497,2147764050,2147554880,2147790729,2147306176,2147478354,2147704832,2148240969,3501,7,13,61200
1348502079,5804,307.8999938964844000,18.4976997375488280,36.6004981994628900,230.1871948242187500,153.5664062500000000,18.4952697753906250,31.5222702026367200,50,108,91,83,65,14742,2147489179,2147762697,2147559542,2147791058,2147303250,2147473243,2147704594,2148238994,2658,7,13,14059
1348502220,5802,296.6900024414062500,18.6313991546630860,36.6100997924804700,228.4261932373047000,149.0818939208984400,18.6319808959960940,31.5487995147705080,50,106,92,84,65,14740,2147490505,2147762660,2147558500,2147790034,2147308434,2147478317,2147706038,2148237997,3469,7,13,64480
1348502359,5802,286.0000000000000000,18.7196998596191400,36.6055984497070300,229.2859039306640600,146.1898040771484400,18.7201690673828120,31.4674797058105470,50,107,91,83,66,14741,2147491062,2147763392,2147559488,2147791460,2147301065,2147480777,2147706953,2148239872,3569,7,13,44594
1348502519,5804,273.6300048828125000,18.8218002319335940,36.6040000915527340,230.0933990478515600,142.8842926025390600,18.8209800720214840,31.3835906982421880,50,108,90,83,65,14743,2147491117,2147764425,2147563904,2147790025,2147303433,2147479131,2147706194,2148236397,636,7,12,29659
1348502646,5802,261.7500000000000000,18.9855995178222660,36.5980987548828100,232.5346069335937500,137.5045928955078000,18.9850997924804700,31.1931190490722660,49,107,91,82,65,14748,2147489417,2147764123,2147565942,2147786962,2147305718,2147482550,2147714660,2148239003,820,7,13,51537
1348502761,5802,250.6100006103515600,19.0228004455566400,36.5791015625000000,237.2124938964843800,136.1911010742187500,19.0251808166503900,30.9526290893554700,50,107,91,83,65,14747,2147489353,2147766573,2147572864,2147788772,2147307529,2147480841,2147712722,2148237147,536,7,13,22807
1348502866,5804,240.4700012207031200,19.0851001739501950,36.5796012878418000,241.2834014892578000,134.0980072021484400,19.0890598297119140,30.7347202301025400,50,107,91,83,64,14744,2147490788,2147770633,2147579236,2147788882,2147312310,2147484736,2147717174,2148237440,749,7,12,54233
1348502981,5804,229.5599975585937500,19.1271991729736330,36.5629997253418000,246.5796966552734400,132.9822998046875000,19.1231193542480470,30.4788703918457030,50,106,91,82,63,14748,2147489837,2147772809,2147582601,2147788269,2147306925,2147483812,2147719579,2148240694,1201,7,12,22120
1348503108,5803,217.7100067138672000,19.1828002929687500,36.5640983581543000,249.1408996582031200,130.9071960449218800,19.1864604949951170,30.3372497558593750,50,108,91,83,64,14746,2147493083,2147777033,2147597586,2147787657,2147308013,2147489325,2147728521,2148237659,1757,7,12,39031
1348503225,5800,207.0899963378906200,19.3071994781494140,36.5797996520996100,249.3638000488281200,126.6998977661132800,19.3149394989013670,30.2727699279785160,51,109,91,83,63,14741,2147496905,2147784109,2147613824,2147788736,2147311606,2147495616,2147737526,2148240685,2424,7,12,31807
1348503340,5803,196.8200073242187500,19.3309993743896500,36.5742988586425800,251.8251037597656200,126.2806015014648400,19.3277492523193360,30.1587390899658200,55,112,91,85,63,14738,2147498825,2147795282,2147639872,2147789385,2147314496,2147501760,2147754770,2148237485,2756,7,12,50705
1348503395,5801,191.9499969482422000,19.3449001312255860,36.5746002197265600,251.9197998046875000,125.6457977294921900,19.3471298217773440,30.1463909149169920,57,112,92,84,63,14739,2147495606,2147800603,2147653814,2147786697,2147305856,2147506797,2147762614,2148241170,3010,7,12,37620
1348503450,5802,187.0299987792968800,19.3920993804931640,36.5816993713378900,251.5843963623047000,124.5354003906250000,19.3810501098632800,30.1466693878173830,59,115,91,84,63,14734,2147499218,2147808246,2147671817,2147786971,2147316928,2147508608,2147768758,2148244150,3224,7,12,16245
1348503525,5802,180.6199951171875000,19.4041004180908200,36.5788993835449200,251.2373046875000000,123.8283996582031200,19.4026508331298830,30.1527690887451170,63,116,91,84,64,14733,2147504027,2147817947,2147692763,2147786980,2147308589,2147517321,2147776594,2148244397,3098,7,12,37786
1348503580,5804,176.1699981689453000,19.4437999725341800,36.5834999084472660,250.6786041259765600,122.5922012329101600,19.4404106140136720,30.1611690521240230,63,115,91,84,63,14731,2147506788,2147824859,2147706048,2147788315,2147314880,2147519195,2147784813,2148243693,3236,7,12,26273
1348503635,5802,171.7700042724609400,19.4771003723144530,36.5858001708984400,250.2111968994140600,121.4809036254882800,19.4743690490722660,30.1673698425292970,65,112,90,84,62,14729,2147511040,2147839149,2147725412,2147789056,2147314422,2147524571,2147793920,2148243081,3381,8,12,38055
1348503690,5804,167.2899932861328000,19.4971008300781250,36.5847015380859400,250.3621978759765600,120.6116027832031200,19.5009307861328120,30.1496295928955080,67,113,90,85,63,14728,2147513865,2147850075,2147746377,2147786907,2147314322,2147528338,2147802331,2148243702,116,7,13,21424
1348503745,5801,162.7599945068359400,19.5484008789062500,36.5886001586914060,250.9853973388672000,119.1781005859375000,19.5447406768798830,30.1033496856689450,68,114,91,83,63,14728,2147518774,2147869010,2147776777,2147787163,2147315190,2147537819,2147817234,2148242898,360,7,12,60790
1348503800,5805,158.2500000000000000,19.5935993194580080,36.5923995971679700,251.3735046386718800,117.5859985351562500,19.5933990478515620,30.0659809112548830,70,116,92,85,64,14726,2147527378,2147889673,2147820489,2147786678,2147326473,2147547958,2147833033,2148247195,280,7,12,34047
1348503878,5806,152.3899993896484400,19.6695995330810550,36.6003990173339840,251.3341064453125000,115.1353988647461000,19.6683101654052730,30.0359306335449220,74,114,91,86,66,14721,2147541705,2147922742,2147883675,2147789257,2147325723,2147566061,2147866459,2148248182,75,7,13,47199
1348503933,5807,148.7500000000000000,19.7465000152587900,36.6096000671386700,251.1578979492187500,112.5699996948242200,19.7467498779296880,30.0105094909667970,77,116,93,85,64,14717,2147551826,2147959762,2147931008,2147786166,2147327899,2147579574,2147884480,2148247113,46,8,12,15903
1348503988,5804,145.2400054931640600,19.8024005889892580,36.6106986999511700,252.7985992431640600,110.8752975463867200,19.7985801696777340,29.9173202514648440,79,118,93,85,65,14712,2147567597,2147993627,2147989074,2147788909,2147342116,2147597074,2147914422,2148251126,165,7,12,31394
1348504055,5802,141.1999969482422000,19.8349990844726560,36.6086006164550800,255.2799072265625000,109.5133972167968800,19.8402404785156250,29.7926101684570300,78,118,93,86,65,14712,2147591305,2148043556,2148078061,2147790098,2147348205,2147614180,2147948553,2148254134,61,7,12,58368
1348504122,5803,137.3899993896484400,19.9377994537353500,36.6194000244140600,256.5967102050781000,106.8638000488281200,19.9213008880615230,29.7024993896484380,82,116,92,85,65,14718,2147621302,2148115108,2148188050,2147787611,2147359350,2147650816,2147998125,2148256393,3499,7,13,38879
1348504200,5802,133.7700042724609400,19.9883003234863280,36.6147003173828100,258.5390930175781000,104.9188003540039000,19.9808197021484380,29.5950393676757800,83,116,93,85,65,14715,2147661778,2148203099,2148328841,2147790025,2147373549,2147692800,2148056036,2148259968,3538,7,13,11504
1348504339,5803,130.2200012207031200,19.9934005737304700,36.5965995788574200,261.9415893554687500,104.5000000000000000,19.9936408996582030,29.4472103118896500,83,120,93,86,64,14706,2147732123,2148354130,2148561371,2147792466,2147397156,2147761673,2148165961,2148268672,2686,7,13,29230
1348504534,5802,125.7900009155273400,20.1462001800537100,36.5996017456054700,268.2148132324219000,99.7863769531250000,20.1379394531250000,29.1307601928710940,81,120,92,86,63,14699,2147883520,2148639798,2148991369,2147797312,2147447689,2147886098,2148356918,2148285019,2230,7,13,46709
1348504637,5803,121.8899993896484400,20.2819995880126950,36.6123008728027340,269.7449035644531000,95.4672470092773400,20.2702293395996100,29.0146598815917970,84,124,93,87,64,14694,2148036443,2148916242,2149385179,2147798857,2147503936,2148006838,2148522870,2148300635,2376,7,12,51173
1348504740,5802,117.7300033569336000,20.4489994049072270,36.6329994201660160,267.2572021484375000,90.1462631225586000,20.4332809448242200,29.0477504730224600,104,129,95,87,63,14671,2148236507,2149256365,2149859794,2147806802,2147579437,2148153737,2148730450,2148316982,3097,7,13,25035
1348504831,5803,113.2300033569336000,20.5090999603271500,36.6296005249023440,267.5860900878906000,87.6570663452148400,20.5095996856689450,29.0030193328857420,107,129,94,86,62,14660,2148538944,2149748361,2150521846,2147814866,2147692196,2148354953,2149000429,2148341732,3277,7,12,45243
1348504898,5805,109.4599990844726600,20.5818996429443360,36.6337013244628900,269.2905883789062500,85.4657897949218800,20.5767993927001950,28.9070701599121100,110,129,95,86,64,14666,2148850029,2150219739,2151099392,2147823021,2147804105,2148532608,2149229339,2148362432,2621,7,13,55797
1348504977,5805,105.3099975585937500,20.7919998168945300,36.6496009826660160,271.5361938476562500,78.8085403442382800,20.7810592651367200,28.7343292236328120,94,127,92,86,62,14669,2149262573,2150802166,2151769014,2147836269,2147957110,2148767405,2149503798,2148388068,1652,7,12,27212
1348505056,5807,102.0699996948242200,21.0939998626709000,36.6563987731933600,275.5210876464844000,69.2721633911132800,21.0739593505859380,28.4596004486084000,85,127,93,88,61,14670,2149612507,2151224530,2152208000,2147848905,2148105856,2148975341,2149717284,2148407049,777,7,13,2294
1348505149,5801,99.0899963378906200,21.2364997863769530,36.6463012695312500,278.9910888671875000,64.9680709838867200,21.2062797546386720,28.2729301452636720,83,129,94,87,63,14654,2150002185,2151703378,2152707346,2147864987,2148264740,2149207186,2149965540,2148431616,3258,8,13,3262
1348505216,5802,97.4300003051757800,21.5186004638671880,36.6882019042968750,279.6824951171875000,61.0857009887695300,21.3257007598876950,28.1985492706298830,85,128,95,88,59,14656,2150198454,2151947510,2152959844,2147869120,2148366784,2149346852,2150109632,2148445010,3461,8,13,56995
1348505331,5804,95.6299972534179700,21.6721000671386720,36.7182006835937500,278.5986938476562500,51.3607902526855500,21.6251106262207030,28.1201591491699220,84,127,95,94,61,14667,2150471798,2152284214,2153319369,2147877851,2148511040,2149540772,2150307785,2148464557,648,7,12,17684
1348505481,5804,92.8000030517578100,21.7858009338378900,36.6967010498046900,279.1170959472656000,46.4479293823242200,21.7765293121337900,28.0399894714355470,79,131,94,88,59,14660,2151206674,2153159469,2154236251,2147905590,2148878866,2150025682,2150811309,2148508333,320,7,12,55384
1348505536,5807,90.6600036621093800,21.7640991210937500,36.6571998596191400,279.9389953613281000,46.6583900451660160,21.7700405120849600,28.0114307403564450,81,138,94,89,59,14652,2151730340,2153775341,2154870820,2147926729,2149136694,2150365238,2151136658,2148539584,418,8,12,52485
1348505591,5806,88.4800033569336000,21.8990001678466800,36.6431999206543000,280.2369079589844000,43.1090202331543000,21.8794994354248050,27.9568691253662100,83,132,96,89,59,14650,2152292909,2154428544,2155546221,2147950912,2149423442,2150716004,2151507611,2148571684,792,7,12,30601
1348505646,5802,86.5800018310546900,22.0326004028320300,36.6473007202148440,281.5033874511719000,38.7110214233398440,22.0152091979980470,27.8553104400634770,85,134,96,88,60,14646,2152807378,2155030326,2156171273,2147976109,2149687387,2151057563,2151839789,2148606793,1163,7,12,30390
1348505701,5804,85.4300003051757800,22.1501007080078120,36.6548004150390600,282.2788085937500000,36.6486701965332000,22.0788898468017580,27.8010597229003900,84,131,94,89,60,14647,2153136320,2155395062,2156542921,2147990272,2149864338,2151270080,2152043602,2148627474,1610,8,13,63775
1348505839,5802,83.4300003051757800,22.9218997955322270,36.7492980957031250,281.2164916992187500,11.1910800933837890,22.8666400909423830,27.5315399169921880,79,133,96,89,58,14646,2153806034,2156140900,2157318080,2148021403,2150321124,2151791899,2152529792,2148668562,1742,8,12,31729
1348505954,5803,81.0999984741211000,23.1979999542236330,36.7644004821777340,281.2916870117187500,2.4346950054168700,23.1383991241455080,27.4228992462158200,77,134,93,90,59,14648,2154535643,2156995227,2158278080,2148069394,2150836809,2152408685,2153129618,2148725568,1900,7,12,11912
1348506033,5804,79.3399963378906200,23.2604999542236330,36.7699012756347660,281.6499023437500000,-0.1268685013055801,23.2179794311523440,27.3785705566406250,78,129,95,91,58,14640,2155096100,2157678656,2159041106,2148104649,2151202770,2152862144,2153575104,2148770002,2179,8,12,33747
1348506136,5804,77.1100006103515600,23.3712997436523440,36.7756004333496100,281.3714904785156000,-4.2973999977111820,23.3476295471191400,27.3387203216552730,74,134,97,91,59,14640,2156251977,2159020800,2160496457,2148181165,2152039917,2153821869,2154484909,2148853046,1980,7,12,49767
1348506203,5804,75.1600036621093800,23.6364002227783200,36.7503013610839840,280.9776916503906000,-11.8627901077270500,23.5830802917480470,27.2623500823974600,74,135,98,90,58,14635,2157189778,2160097782,2161672640,2148252644,2152782774,2154663844,2155257627,2148927707,2376,7,12,38310
1348506306,5801,73.6900024414062500,23.6462001800537100,36.7131004333496100,280.7867126464844000,-13.5829896926879880,23.6366596221923830,27.2487602233886720,78,132,95,88,59,14640,2158104877,2161187812,2162893202,2148315602,2153520310,2155529252,2156075035,2149003072,2487,7,13,19941
1348506468,5804,71.0699996948242200,23.9036998748779300,36.6024017333984400,278.9666137695312500,-19.2027702331542970,23.8118495941162100,27.2490501403808600,76,134,96,90,59,14639,2160175625,2163540141,2165412763,2148473142,2155106185,2157319789,2157730002,2149161206,1978,8,12,20659
1348506619,5804,69.8899993896484400,24.0562992095947270,36.6050987243652340,277.9389038085937500,-26.4659500122070300,24.0385494232177730,27.2003707885742200,78,135,95,89,59,14621,2160946258,2164406089,2166299346,2148528402,2155702582,2157968082,2158302345,2149219136,2787,7,12,8770
1348506793,5803,67.7600021362304700,24.4022998809814450,36.5577011108398440,276.4793090820312500,-37.6011581420898440,24.3867797851562500,27.1216297149658200,79,137,95,89,58,14623,2162120649,2165593508,2167361188,2148634578,2156727259,2158958957,2159074340,2149304612,2651,8,12,62870
1348507039,5805,65.1200027465820300,24.8500003814697270,36.5237998962402340,273.7391052246094000,-51.8477096557617200,24.8335304260253900,27.0544700622558600,79,144,96,91,59,14620,2162373248,2165674660,2167273499,2148694774,2157310409,2159386486,2159298605,2149338011,718,8,12,19614
1348507118,5803,63.5600013732910160,25.0422000885009770,36.4984016418457000,272.5711975097656000,-56.5966186523437500,24.9827709197998050,27.0419998168945300,82,136,96,90,56,14615,2163179099,2166547337,2168152146,2148775990,2158016786,2160100525,2159906587,2149406930,251,8,12,5162
1348507412,5804,61.2299995422363300,25.2789993286132800,36.4748992919921900,259.8901062011719000,-64.1268081665039000,25.2197399139404300,27.4469203948974600,80,139,94,89,58,14633,2168150006,2171864246,2173469293,2149203657,2161073243,2163476050,2163038875,2149756406,799,8,12,58413
1348507503,5802,59.6800003051757800,25.5373992919921880,36.4221992492675800,248.8789978027343800,-73.9856567382812500,25.5306301116943360,27.7801494598388670,83,139,95,90,59,14630,2170018066,2173675456,2175091958,2149342564,2161956096,2164438985,2163932077,2149865490,745,8,12,14895
1348507701,5805,56.9700012207031250,25.8418006896972660,36.3835983276367200,244.9351959228515600,-82.9786834716796900,25.8148708343505860,27.8381004333496100,81,138,95,89,57,14621,2175006436,2178830290,2180259547,2149924251,2164741513,2167516288,2166917677,2150255506,3185,8,12,8622
1348507768,5802,55.2700004577636700,25.8859004974365230,36.3666000366210940,242.4660034179687500,-85.0010986328125000,25.8788700103759770,27.9197807312011720,82,142,95,89,59,14617,2177459821,2181356150,2182772525,2150207652,2166142061,2169049298,2168388315,2150451684,2380,6,12,15659
1348508017,5806,53.9199981689453100,26.2786998748779300,36.3228988647460940,243.1627044677734400,-94.2857131958007800,26.1731395721435550,27.7765407562255860,81,138,97,92,61,14610,2180450852,2184037842,2184904868,2150484507,2167486500,2170312310,2169457846,2150619675,1704,8,12,12634
1348508326,5803,51.8600006103515600,26.6842002868652340,36.2774009704589840,242.5751037597656200,-110.2419967651367200,26.6805191040039060,27.6079406738281250,83,140,96,90,58,14600,2184749403,2188196022,2188819154,2151092022,2170067748,2172889334,2171805403,2150986843,2031,8,12,24412
1348508407,5803,49.9399986267089840,26.8101997375488280,36.2582015991210940,240.8679962158203000,-113.9608993530273400,26.7990798950195300,27.6363105773925780,84,137,94,90,57,14590,2186741558,2189891894,2190162715,2151362422,2171348726,2174002148,2172643684,2151127725,2559,8,12,45136
1348508584,5801,48.6500015258789060,26.9365997314453120,36.2368011474609400,238.8339996337890600,-118.2395019531250000,26.9356307983398440,27.6727504730224600,82,143,95,89,60,14594,2187122523,2189667419,2189448896,2151560201,2171562285,2173836214,2172236544,2151164580,2668,6,12,47089
1348508653,5803,46.9300003051757800,27.3584995269775400,36.1666984558105500,237.4393005371093800,-130.5261993408203000,27.3286590576171880,27.5842208862304700,81,139,94,90,59,14599,2188657069,2190957732,2190482953,2151846921,2172864777,2174914157,2173016941,2151313938,2171,7,12,41544
1348508888,5804,45.9399986267089840,27.5942993164062500,36.1617012023925800,235.7091064453125000,-138.4660034179687500,27.5833702087402340,27.5636501312255860,78,137,94,89,59,14597,2188191945,2190291666,2189735369,2151902235,2173006372,2174780525,2172737234,2151324763,1709,7,12,1458
1348508945,5804,44.8899993896484400,27.6786994934082030,36.1510009765625000,235.1372985839843800,-141.1649017333984400,27.6700801849365230,27.5561294555664060,78,135,94,89,57,14602,2189093787,2191207606,2190664694,2152078308,2174052342,2175720073,2173481883,2151441600,1931,7,12,31353
1348509242,5805,42.8300018310546900,27.6672000885009770,36.1133003234863300,234.2413024902343800,-141.1683044433593800,27.6701908111572270,27.5957202911376950,71,130,93,88,57,14613,2192040576,2194114066,2193713088,2152991506,2178886628,2179713718,2176284708,2151914157,1304,7,12,34614
1348509311,5803,40.6899986267089840,27.6644992828369140,36.1072006225585940,234.0055999755859400,-141.1226043701172000,27.6687202453613280,27.6067695617675780,68,128,92,90,58,14620,2194714249,2196749028,2196484891,2153870646,2183406829,2183519698,2178954322,2152347547,1202,8,11,53373
1348509368,5804,38.7700004577636700,27.6644992828369140,36.1044006347656250,233.9750061035156200,-141.1427001953125000,27.6693592071533200,27.6079406738281250,67,127,92,88,58,14613,2197319168,2199320137,2199205312,2154665453,2187630811,2187105261,2181475072,2152754614,1098,9,12,21223